Bozeman, MT

7:26 PM MST on February 24, 2018 (GMT -0700)
Gallatin

Weather History for KBZN - February, 2014

Change the Weather History Date:

Tuesday, February 11, 2014

  Actual Average Record
Temperature  
Mean Temperature 25 °F 26 °F  
Max Temperature 41 °F 38 °F 63 °F (1961)
Min Temperature 9 °F 14 °F -32 °F (1948)
Degree Days  
Heating Degree Days 40 39  
Month to date heating degree days 693 435  
Since 1 July heating degree days 5319 4957  
Cooling Degree Days 0 0  
Month to date cooling degree days 0 0  
Year to date cooling degree days 0 0  
Moisture  
Dew Point 18 °F    
Average Humidity 59    
Maximum Humidity 73    
Minimum Humidity 44    
Precipitation  
Precipitation T in 0.01 in 0.25 in (1949)
Month to date precipitation 0.19 0.15  
Year to date precipitation 0.48 0.63  
Snow  
Snow T in 0.20 in 10.90 in (1949)
Month to date snowfall 5.9 1.8  
Since 1 July snowfall 18.2 19.2  
Snow Depth 11.00 in    
Sea Level Pressure  
Sea Level Pressure 30.01 in    
Wind  
Wind Speed 12 mph (WSW)    
Max Wind Speed 40 mph    
Max Gust Speed 50 mph    
Visibility 9 miles    
Events Fog , Snow    
T = Trace of Precipitation, MM = Missing Value Source: NWS Daily Summary

Daily Weather History Graph

Daily Weather History Graph

Search for Another Location

Airport or City:

Trip Planner

Search our weather history database for the weather conditions in past years. The results will help you decide how hot, cold, wet, or windy it might be!

Date:

Astronomy

Feb. 11, 2014 Rise Set
Actual Time 7:32 AM MST 5:45 PM MST
Civil Twilight 7:01 AM MST 6:16 PM MST
Nautical Twilight 6:26 AM MST 6:51 PM MST
Astronomical Twilight 5:52 AM MST 7:26 PM MST
Moon 3:05 PM MST (2/11) 5:16 AM MST (2/11)
Length of Visible Light 11h 14m
Length of Day
10h 12m
Waxing Gibbous, 91% of the Moon is Illuminated
Feb 11
Waxing Gibbous
Feb 14
Full
Feb 22
Last Quarter
Mar 1
New
Mar 8
First Quarter

Hourly Weather History & Observations

Time (MST) Temp. Windchill Dew Point Humidity Pressure Visibility Wind Dir Wind Speed Gust Speed Precip Events Conditions
12:56 AM 37.9 °F 27.9 °F 19.9 °F 48% 30.06 in 10.0 mi SW 19.6 mph - N/A   Mostly Cloudy
1:56 AM 36.0 °F 26.7 °F 19.9 °F 52% 30.06 in 10.0 mi SSW 15.0 mph - N/A   Mostly Cloudy
2:56 AM 37.9 °F - 19.0 °F 47% 30.03 in 10.0 mi North - - N/A   Overcast
3:56 AM 36.0 °F - 19.0 °F 50% 30.03 in 10.0 mi North - - N/A   Scattered Clouds
4:56 AM 32.0 °F - 19.0 °F 59% 30.02 in 10.0 mi North - - N/A   Overcast
5:56 AM 36.0 °F - 19.0 °F 50% 29.99 in 10.0 mi North - - N/A   Mostly Cloudy
6:56 AM 37.0 °F 27.4 °F 19.9 °F 50% 29.97 in 10.0 mi WSW 17.3 mph - N/A   Overcast
7:56 AM 34.0 °F 25.0 °F 18.0 °F 52% 29.96 in 10.0 mi SSW 12.7 mph - N/A   Scattered Clouds
8:56 AM 37.9 °F 28.9 °F 19.9 °F 48% 29.93 in 10.0 mi SW 16.1 mph 23.0 mph N/A   Overcast
9:56 AM 39.0 °F 30.6 °F 19.9 °F 46% 29.91 in 10.0 mi WSW 15.0 mph 20.7 mph N/A   Partly Cloudy
10:56 AM 39.9 °F - 21.0 °F 47% 29.88 in 10.0 mi North - - N/A   Clear
10:58 AM 39.9 °F 29.7 °F 21.0 °F 47% 29.82 in 10.0 mi SW 23.0 mph - N/A   Clear
11:56 AM 41.0 °F 32.2 °F 23.0 °F 49% 29.85 in 10.0 mi WSW 18.4 mph 28.8 mph N/A   Clear
12:43 PM 34.0 °F 18.7 °F 28.9 °F 82% 29.86 in 1.8 mi NW 39.1 mph 50.6 mph 0.00 in Snow Light Snow
12:45 PM 32.0 °F 16.0 °F 28.9 °F 88% 29.86 in 0.8 mi NW 39.1 mph 50.6 mph 0.00 in Snow Light Snow
12:51 PM 30.2 °F 13.3 °F 28.4 °F 93% 29.86 in 0.2 mi NW 40.3 mph 50.6 mph 0.00 in Fog , Snow Heavy Snow
12:56 PM 30.0 °F 14.2 °F 28.0 °F 92% 29.95 in 0.2 mi NW 33.4 mph 47.2 mph 0.00 in Fog , Snow Heavy Snow
1:13 PM 30.0 °F - 27.0 °F 88% 29.90 in 5.0 mi North - - 0.00 in Snow Light Snow
1:24 PM 30.9 °F 20.2 °F 25.0 °F 79% 29.91 in 10.0 mi WNW 15.0 mph - 0.00 in   Mostly Cloudy
1:56 PM 33.1 °F 23.9 °F 25.0 °F 72% 29.99 in 10.0 mi West 12.7 mph - 0.00 in   Mostly Cloudy
2:56 PM 36.0 °F 29.6 °F 24.1 °F 62% 30.00 in 10.0 mi West 8.1 mph - N/A   Partly Cloudy
3:56 PM 33.1 °F 26.1 °F 18.0 °F 54% 30.05 in 10.0 mi WNW 8.1 mph - N/A   Clear
4:56 PM 33.1 °F 27.7 °F 15.1 °F 48% 30.09 in 10.0 mi SSW 5.8 mph - N/A   Clear
5:56 PM 24.1 °F 16.0 °F 12.9 °F 62% 30.14 in 10.0 mi SSW 6.9 mph - N/A   Clear
6:56 PM 21.0 °F 10.6 °F 9.0 °F 60% 30.17 in 10.0 mi SSW 9.2 mph - N/A   Clear
7:56 PM 19.9 °F 10.1 °F 8.1 °F 60% 30.19 in 10.0 mi SSW 8.1 mph - N/A   Clear
8:56 PM 9.0 °F -3.2 °F 1.9 °F 73% 30.21 in 10.0 mi SSE 8.1 mph - N/A   Clear
9:56 PM 12.9 °F 2.6 °F 5.0 °F 71% 30.19 in 10.0 mi South 6.9 mph - N/A   Clear
10:56 PM 12.0 °F -0.4 °F 3.9 °F 70% 30.18 in 10.0 mi SSE 9.2 mph - N/A   Clear
11:56 PM 16.0 °F 7.4 °F 7.0 °F 68% 30.14 in 10.0 mi SW 5.8 mph - N/A   Clear